Location: Go�ngahuizen
(53.0821°N, 5.8849°E)
Time: 05:32:56
(UTC+00:00)

Cosmos 1943 - Pass Details

Date: 09 April 2020
Orbit: 832 x 851 km, 71.0° (Epoch: 31 May)

Event Time Altitude Azimuth Distance (km) Brightness Sun altitude
Rises 19:09:37 0° 215° (SW) 3,388 6.5 -7.0°
Reaches altitude 10° 19:12:03 10° 216° (SW) 2,460 5.8 -7.3°
Maximum altitude 19:17:43 77° 303° (WNW) 874 3.5 -8.1°
Drops below altitude 10° 19:23:26 10° 30° (NNE) 2,486 5.6 -8.8°
Sets 19:25:55 0° 32° (NNE) 3,427 6.3 -9.2°
